Regional Weather Roundup
Issued by NWS Grand Forks, ND

Home | Current Version | Previous Version | Graphics & Text | Print | Product List | Glossary On
Versions: 1 2 3 4 5 6 7 8 9 10 11 12 13 14 15 16 17 18 19 20 21 22 23 24 25 26 27 28 29 30 31 32 33 34 35 36 37 38 39 40 41 42 43 44 45 46 47 48 49 50
000
ASUS43 KFGF 261431
RWRFGF
PRAIRIE TO PINES  WEATHER ROUNDUP
NATIONAL WEATHER SERVICE EASTERN NORTH DAKOTA/GRAND FORKS ND
800 AM CST MON JAN 26 2015

 **SATELLITE DATA USED TO AUGMENT SKY COVER AT AUTOMATED STATIONS**
 *****  WEATHER ACROSS EASTERN NORTH DAKOTA  *****

CITY           SKY/WX    TMP DP  RH WIND       PRES   REMARKS
GRAND FORKS    PTCLDY    36  30  79 NW16G23   29.68R
GRAND FRKS AFB CLEAR     36  29  77 NW14      29.70R
GRAND FRKS NWS   N/A     34 N/A N/A NW9         N/A
DEVILS LAKE    CLEAR     34  28  80 NW18      29.75R WCI  23
FARGO          CLEAR     33  28  81 W12       29.71R WCI  24
WAHPETON ARPT  SUNNY     32  30  93 W12       29.74R WCI  23
$$

 ***** WEATHER ACROSS CENTRAL AND WESTERN NORTH DAKOTA  *****

CITY           SKY/WX    TMP DP  RH WIND       PRES   REMARKS
BISMARCK       CLEAR     37  31  78 NW8       29.88R
MINOT          CLEAR     37  29  72 W18       29.84R
JAMESTOWN      CLEAR     36  30  79 NW15      29.76R
MINOT AFB      CLEAR     35  34  96 NW16      29.83R
GARRISON         N/A     36  31  82 W13       29.86R
WILLISTON      CLEAR     33  29  85 SW8       29.93R
DICKINSON      CLEAR     34  30  85 W10       29.92R
HETTINGER      CLEAR     34  30  85 W8        29.96R
$$

 *****  OTHER AIRPORT OBSERVATIONS IN OUR AREA  *****

CITY           SKY/WX    TMP DP  RH WIND       PRES   REMARKS
WALHALLA         N/A     37  36  93 NW15      29.71R
GRAFTON AIRPOR NOT AVBL
VALLEY CITY AR MIX PCPN  36  36 100 NW18      29.75
CANDO          FAIR      28  27  93 NW14      29.77R WCI  17
CAVALIER APRT  CLOUDY    37  32  81 NW18      29.70R
GWINNER        SUNNY     36  34  93 W13       29.78R
ROLLA          FAIR      36  32  87 NW31G40   29.76R
 ***** THE ABOVE OBSERVATIONS ARE NON NWS ARE NOT QUALITY
       CONTROLLED AND MAY MIS-REPORT RAIN FOR SNOW...
$$

  *****  WEATHER ACROSS NORTHERN MINNESOTA  *****

CITY           SKY/WX    TMP DP  RH WIND       PRES   REMARKS
FLAG ISLAND    RAIN      30  30 100 NW15      29.56R WCI  19
WARROAD        CLOUDY    36  30  80 W7        29.59R
ROSEAU         CLOUDY    36  30  80 W9        29.60R
HALLOCK        CLOUDY    37  32  81 NW18G24   29.67R
THF RVR FALLS  CLOUDY    36  30  80 NW13      29.65R
BAUDETTE       CLOUDY    33  29  85 NW10      29.55R WCI  25
WASKISH        CLOUDY    32  30  93 W12       29.59R WCI  23
CROOKSTON      CLOUDY    34  30  86 NW15      29.69R WCI  24
STEPHEN NDAWN    N/A     36  32  87 NW14        N/A
GREENBUSH NDAW   N/A     36  32  87 W15         N/A
$$
  *****  WEATHER ACROSS CENTRAL AND WEST MINNESOTA  *****

CITY           SKY/WX    TMP DP  RH WIND       PRES   REMARKS
FOSSTON        CLOUDY    32  28  86 NW9       29.65R WCI  24
BEMIDJI        LGT SNOW  33  31  96 W13       29.61R WCI  23
PARK RAPIDS    PTCLDY    31  28  89 NW13      29.62R WCI  21
ELBOW LAKE     FAIR      29  29  97 W12       29.71R WCI  20
WADENA         CLEAR     27  25  93 W7        29.66R WCI  19
DETROIT LAKES  CLOUDY    34  32  93 NW17      29.68R WCI  23
MOORHEAD       CLEAR     32  32 100 W8        29.72R WCI  25
FERGUS FALLS   CLEAR     27  27 100 NW7       29.74R WCI  19
MORRIS MN      CLEAR     34  30  86 W14       29.72R WCI  24
STAPLES        CLEAR     28  27  93 W8        29.65R WCI  20
$$
  *****  WEATHER ELSEWHERE ACROSS MINNESOTA  *****

CITY           SKY/WX    TMP DP  RH WIND       PRES   REMARKS
DULUTH         FRZ DRZL  21  18  88 SW10      29.62R WCI  10
INTRNTL FALLS  LGT SNOW  25  23  92 SW5       29.56R FOG     WCI  19
ELY            LGT SNOW  19  18  93 S7        29.61S WCI  10
CLOQUET        CLOUDY    21  19  93 S6        29.62F FOG     WCI  14
WHEATON        CLEAR     34  30  86 W16G23    29.76R WCI  23
BRAINERD       CLOUDY    28  27  96 SW6       29.64R WCI  22
HIBBING        LGT SNOW  22  19  89 S5        29.59S FOG     WCI  16
ALEXANDRIA     CLEAR     31  28  89 W13       29.68R WCI  21
SAINT CLOUD    CLOUDY    30  28  92 S6        29.67R WCI  24
MINNEAPOLIS    CLOUDY    31  27  85 VRB3      29.70F
$$

  *****  WEATHER ACROSS SOUTH DAKOTA  *****

CITY           SKY/WX    TMP DP  RH WIND       PRES   REMARKS
SIOUX FALLS    PTCLDY    36  32  85 NW16      29.81R
BROOKINGS      NOT AVBL
WATERTOWN      CLEAR     33  29  85 NW12      29.78R WCI  24
HURON          PTCLDY    36  32  85 NW10      29.85R
SISSETON         N/A     38  32  79 NW16G26   29.75R
ABERDEEN       MOCLDY    36  31  82 NW6       29.83R
MITCHELL       CLEAR     37  32  82 W10       29.88R
PIERRE         PTCLDY    38  32  79 W13       29.91S
MOBRIDGE       CLOUDY    38  33  82 NW10      29.87R
RAPID CITY     CLEAR     48  28  46 NW6       30.00S
$$

  *****  SOME WEATHER IN NEARBY STATES *****

CITY           SKY/WX    TMP DP  RH WIND       PRES   REMARKS
GLASGOW MT     CLEAR     32  29  88 N6        29.95F
GREAT FALLS MT MOCLDY    54  28  36 SW18      30.03S
CHEYENNE WY    PTCLDY    47  22  37 NW12      30.23R
SCOTTSBLUFF NE CLEAR     34  29  82 NW8       30.14R
OMAHA NE       PTCLDY    28  26  92 SE7       29.88F WCI  21
DES MOINES IA  MOCLDY    33  27  78 SW17      29.83F WCI  22
DAVENPORT IA   LGT SNOW  20  15  81 S13       29.93F WCI   7
CHICAGO IL     MOCLDY    17  14  88 W3        29.96R
EAU CLAIRE WI  CLOUDY    21  17  84 S12       29.74F WCI   9
LA CROSSE WI   LGT SNOW  23  19  85 S14       29.82F FOG     WCI  11
$$

  *****  SOME NATIONAL WEATHER *****

CITY           SKY/WX    TMP DP  RH WIND       PRES   REMARKS
LA GUARDIA NY  LGT SNOW  25  18  74 NE21      30.01S VSB 1   WCI  11
RALEIGH NC     LGT RAIN  41  39  93 CALM      29.68S FOG
ATLANTA GA     LGT RAIN  43  39  87 W15       29.81R FOG
NEW ORLEANS LA MOSUNNY   50  35  56 NW14G21   30.12R
OKLAHOMA CITY  PTCLDY    32  25  75 S8        30.13S WCI  25
ALBUQUERQUE NM MOCLDY    32  23  69 N8        30.37R WCI  25
SALT LAKE CITY CLEAR     32  28  85 SE6       30.39F
LOS ANGELES CA CLOUDY    64  36  35 NE3       29.98S
BOISE ID       CLEAR     30  27  88 S5        30.34S
SEATTLE WA     PTCLDY    45  45 100 SE9       29.95S
$$

*** WEATHER ACROSS MANITOBA...SASKATCHEWAN AND ONTARIO ***
                ***ONTARIO***

CITY           SKY/WX    TMP DP  RH WIND       PRES   REMARKS
GERALDTON      FLURRIES N/A N/A N/A E7          N/A
THUNDER BAY    LGT SNOW  16  14  93 VRB2      29.74S
SIOUX LOOKOUT  FLURRIES  18  16  93 SE6       29.57F WCI   9
TORONTO        PTSUNNY    9  -2  61 NE15      30.01F WCI  -8
BIG TROUT LK   CLEAR     -4  -8  84 E5        29.77R WCI -15
PICKLE LAKE    FLURRIES  10   7  85 SE8       29.63F WCI  -1
DRYDEN         CLOUDY    19  18  93 SE7       29.55S WCI  10
KENORA         FLURRIES  23  23 100 NW5       29.54  WCI  17
$$
                *** MANITOBA***

CITY           SKY/WX    TMP DP  RH WIND       PRES   REMARKS
BRANDON        PTCLDY    34  28  80 NW17G23   29.76R WCI  23
DAUPHIN        PTCLDY    23  23 100 N2        29.82R
ISLAND LAKE    MOCLDY     7   3  85 N2        29.73R
PILOT MOUND      N/A     34  30  86 NW18        N/A  WCI  23
THE PAS        CLOUDY    12   9  85 N7        29.83R WCI   2
THOMPSON       FLURRIES   5   0  78 VRB2      29.80R
WINNIPEG       LGT SNOW  32  28  86 NW22      29.70R WCI  19
LYNN LAKE      FLURRIES   5   1  85 S5        29.75R WCI  -4
CHURCHILL      PTCLDY   -17 -22  76 S8        29.90F WCI -34
GILLAM         CLOUDY    -4  -9  77 NE5       29.83R WCI -15
$$
                ***SASKATCHEWAN***

CITY           SKY/WX    TMP DP  RH WIND       PRES   REMARKS
ESTEVAN        CLOUDY    36  30  80 NW14      29.88R
KINDERSLEY     PTCLDY    27  23  86 S7        29.87F WCI  19
LLOYDMINSTER   MOCLDY    36  28  75 W9        29.83S
PRINCE ALBERT  MOCLDY    25  23  93 W5        29.81F WCI  19
REGINA         MOCLDY    34  30  86 W10       29.89R
YORKTON        MOCLDY    32  28  86 NW8       29.83R WCI  25
N. BATTLEFORD  CLOUDY    34  30  86 SW8       29.87S
LA RONGE       CLOUDY    27  27 100 S3        29.76S
SASKATOON      MOCLDY    32  28  86 W7        29.88R
SWIFT CURRENT  MOCLDY    32  28  86 E47G108   29.90S SQUALL  WCI  15
$$
NOTE: THESE ARE AUTOMATED STATIONS WITH LIMITED QUALITY CONTROL
      "FAIR" INDICATES FEW OR NO CLOUDS BELOW 12,000 FEET WITH NO
      SIGNIFICANT WEATHER AND/OR OBSTRUCTIONS TO VISIBILITY.
      SKY/WX - SKY CONDITION AND SIGNIFICANT WEATHER.
      TMP - AIR TEMPERATURE.    DP   - DEWPOINT TEMPERATURE.
      RH  - RELATIVE HUMIDITY.  PRES - PRESSURE.
      HX  - HEAT INDEX.         WCI  - WIND CHILL INDEX.
$



USA.gov is the U.S. government's official web portal to all federal, state and local government web resources and services.